LRSV Weather Reports


Display with metric or nautical units.
time (UTC)temp
F
wind
direction
speed
MPH
gust
MPH
rain 1hr
in
rain 24hr
in
rain mn
in
humidity
%
barometer
mb
20260507063320 64 180 6.0 0.0 0.00 0.00 0.00 60 1014.0
20260507061829 61 200 10.0 0.0 0.00 0.00 0.00 63 1014.0
20260507060320 61 200 10.0 0.0 0.00 0.00 0.00 63 1014.0
20260507054820 57 200 11.0 0.0 0.00 0.00 0.00 67 1014.0
20260507053327 57 200 11.0 0.0 0.00 0.00 0.00 67 1014.0
20260507051820 55 200 11.0 0.0 0.00 0.00 0.00 72 1014.0
20260507050320 55 200 11.0 0.0 0.00 0.00 0.00 72 1014.0
20260507044817 54 200 11.0 0.0 0.00 0.00 0.00 77 1014.0
20260507043320 54 200 11.0 0.0 0.00 0.00 0.00 77 1014.0
20260507041820 52 200 13.0 0.0 0.00 0.00 0.00 82 1013.0
20260507040320 52 200 13.0 0.0 0.00 0.00 0.00 82 1013.0
20260507034817 50 210 11.0 0.0 0.00 0.00 0.00 82 1013.0
20260507033319 50 210 11.0 0.0 0.00 0.00 0.00 82 1013.0
20260507031820 52 210 13.0 0.0 0.00 0.00 0.00 77 1013.0
20260507030320 52 210 13.0 0.0 0.00 0.00 0.00 77 1013.0
20260507024820 50 210 13.0 0.0 0.00 0.00 0.00 82 1013.0
20260507023320 50 210 13.0 0.0 0.00 0.00 0.00 82 1013.0
20260507021820 52 210 10.0 0.0 0.00 0.00 0.00 77 1013.0
20260507020320 52 210 10.0 0.0 0.00 0.00 0.00 77 1013.0
20260507014820 50 190 8.0 0.0 0.00 0.00 0.00 82 1013.0
20260507013319 50 190 8.0 0.0 0.00 0.00 0.00 82 1013.0
20260507011820 50 180 8.0 0.0 0.00 0.00 0.00 82 1013.0
20260507010320 50 180 8.0 0.0 0.00 0.00 0.00 82 1013.0
20260507004820 50 180 10.0 0.0 0.00 0.00 0.00 82 1013.0
20260507003321 50 180 10.0 0.0 0.00 0.00 0.00 82 1013.0
20260507001820 54 190 10.0 0.0 0.00 0.00 0.00 72 1013.0
20260507000321 54 190 10.0 0.0 0.00 0.00 0.00 72 1013.0
20260506234820 54 180 13.0 0.0 0.00 0.00 0.00 72 1013.0
20260506233320 54 180 13.0 0.0 0.00 0.00 0.00 72 1013.0
20260506231821 54 180 11.0 0.0 0.00 0.00 0.00 72 1013.0
20260506230320 54 180 11.0 0.0 0.00 0.00 0.00 72 1013.0
20260506224816 55 180 10.0 0.0 0.00 0.00 0.00 67 1013.0
20260506223320 55 180 10.0 0.0 0.00 0.00 0.00 67 1013.0
20260506221820 57 180 10.0 0.0 0.00 0.00 0.00 63 1013.0
20260506220319 57 180 10.0 0.0 0.00 0.00 0.00 63 1013.0
20260506214836 59 180 11.0 0.0 0.00 0.00 0.00 59 1012.0
20260506213320 59 180 11.0 0.0 0.00 0.00 0.00 59 1012.0
20260506211817 59 170 11.0 0.0 0.00 0.00 0.00 59 1012.0
20260506210319 59 170 11.0 0.0 0.00 0.00 0.00 59 1012.0
20260506204821 61 170 11.0 0.0 0.00 0.00 0.00 55 1012.0
20260506203320 61 170 11.0 0.0 0.00 0.00 0.00 55 1012.0
20260506201817 63 160 13.0 0.0 0.00 0.00 0.00 52 1012.0
20260506200320 63 160 13.0 0.0 0.00 0.00 0.00 52 1012.0
20260506194839 63 160 16.0 0.0 0.00 0.00 0.00 52 1012.0
20260506193344 63 160 16.0 0.0 0.00 0.00 0.00 52 1012.0
20260506191821 64 170 18.0 0.0 0.00 0.00 0.00 46 1012.0
20260506190320 64 170 18.0 0.0 0.00 0.00 0.00 46 1012.0
20260506184825 66 170 18.0 0.0 0.00 0.00 0.00 40 1012.0
20260506183320 66 170 18.0 0.0 0.00 0.00 0.00 40 1012.0
20260506181820 66 170 16.0 0.0 0.00 0.00 0.00 40 1011.0
20260506180320 66 170 16.0 0.0 0.00 0.00 0.00 40 1011.0
20260506174820 68 160 17.0 0.0 0.00 0.00 0.00 38 1011.0
20260506173320 68 160 17.0 0.0 0.00 0.00 0.00 38 1011.0
20260506171820 70 160 17.0 0.0 0.00 0.00 0.00 35 1011.0
20260506170320 70 160 17.0 0.0 0.00 0.00 0.00 35 1011.0
20260506164820 72 160 20.0 0.0 0.00 0.00 0.00 33 1011.0
20260506163320 72 160 20.0 0.0 0.00 0.00 0.00 33 1011.0
20260506161820 73 160 18.0 0.0 0.00 0.00 0.00 29 1011.0
20260506160320 73 160 18.0 0.0 0.00 0.00 0.00 29 1011.0
20260506154821 75 170 21.0 0.0 0.00 0.00 0.00 27 1011.0
20260506153320 75 170 21.0 0.0 0.00 0.00 0.00 27 1011.0
20260506151820 77 160 20.0 0.0 0.00 0.00 0.00 28 1011.0
20260506150326 77 160 20.0 0.0 0.00 0.00 0.00 28 1011.0
20260506144820 77 160 20.0 0.0 0.00 0.00 0.00 28 1011.0
20260506143332 77 160 20.0 0.0 0.00 0.00 0.00 28 1011.0
20260506141820 77 150 21.0 0.0 0.00 0.00 0.00 28 1011.0
20260506140436 77 150 21.0 0.0 0.00 0.00 0.00 28 1011.0
20260506134845 77 140 20.0 0.0 0.00 0.00 0.00 26 1011.0
20260506133320 77 140 20.0 0.0 0.00 0.00 0.00 26 1011.0
20260506131820 79 140 18.0 0.0 0.00 0.00 0.00 26 1011.0
20260506130329 79 140 18.0 0.0 0.00 0.00 0.00 26 1011.0
20260506124821 79 140 20.0 0.0 0.00 0.00 0.00 24 1012.0
20260506123320 79 140 20.0 0.0 0.00 0.00 0.00 24 1012.0
20260506121820 79 150 18.0 0.0 0.00 0.00 0.00 23 1012.0
20260506120320 79 150 18.0 0.0 0.00 0.00 0.00 23 1012.0
20260506114820 79 150 15.0 0.0 0.00 0.00 0.00 26 1012.0
20260506113320 79 150 15.0 0.0 0.00 0.00 0.00 26 1012.0
20260506111820 79 160 14.0 0.0 0.00 0.00 0.00 23 1013.0
20260506110320 79 160 14.0 0.0 0.00 0.00 0.00 23 1013.0
20260506104820 79 150 15.0 0.0 0.00 0.00 0.00 24 1013.0
20260506103320 79 150 15.0 0.0 0.00 0.00 0.00 24 1013.0
20260506101820 77 150 17.0 0.0 0.00 0.00 0.00 26 1013.0
20260506100320 77 150 17.0 0.0 0.00 0.00 0.00 26 1013.0
20260506094820 77 170 15.0 0.0 0.00 0.00 0.00 24 1013.0
20260506093320 77 170 15.0 0.0 0.00 0.00 0.00 24 1013.0
20260506091820 75 150 11.0 0.0 0.00 0.00 0.00 34 1013.0
20260506090320 75 150 11.0 0.0 0.00 0.00 0.00 34 1013.0
20260506084820 73 170 7.0 0.0 0.00 0.00 0.00 38 1013.0
20260506083320 73 170 7.0 0.0 0.00 0.00 0.00 38 1013.0
20260506081817 72 200 6.0 0.0 0.00 0.00 0.00 38 1013.0
20260506080320 72 200 6.0 0.0 0.00 0.00 0.00 38 1013.0
20260506073320 70 210 6.0 0.0 0.00 0.00 0.00 40 1013.0
20260506071820 66 210 6.0 0.0 0.00 0.00 0.00 43 1013.0
20260506070320 66 210 6.0 0.0 0.00 0.00 0.00 43 1013.0